Location: Newark
(45.8667°N, 9.7333°E)
Time: 19:52:06
(UTC+00:00)

Vanguard 3 - Pass Details

Date: 28 January 2020
Orbit: 508 x 3263 km, 33.3° (Epoch: 17 February)

Event Time Altitude Azimuth Distance (km) Brightness Sun altitude
Rises 18:45:12 0° 262° (W) 7,159 13.3 -25.2°
Reaches altitude 10° 18:50:08 10° 258° (WSW) 6,199 12.6 -26.1°
Maximum altitude 19:08:47 52° 190° (S) 3,370 10.1 -29.3°
Enters shadow 19:16:11 33° 137° (SE) 3,629 10.0 -30.6°
Drops below altitude 10° 19:22:22 10° 120° (ESE) 4,646 - -31.7°
Sets 19:25:29 0° 115° (ESE) 5,327 - -32.2°
